Retour au catalogue

STARLINK-4153

ActifCommunicationsVLEO
NORAD 53037·PAYLOAD·🇺🇸 United States

Lancé Jul 7, 2022 depuis Cape Canaveral Space Force Station

Loading…

Prochains Passages (prochaines 24 heures)

TLE

FraisSource: CelesTrak SupGP

Époque: Sep 15, 2026, 02:32 UTC

1 53037C 22076BD  26258.10604167  .00675300  00000+0  20177-1 0  2589
2 53037  53.1602 299.6233 0001292  86.8822 205.4186 15.33700934    11

Suivez STARLINK-4153 en temps réel avec AllMySat

Download on the App Store